www.pogodaiklimat.ru

Погода и климат >> Архив погоды >> Чад >> Сарх


ПОГОДА в Сархе

  • Прогноз погоды в Сархе
  • Монитор погоды в Сархе

АРХИВ ПОГОДЫ в Сархе

Время (UTC), дата Ветер
(напр.,м/с)
 
Видим.   Явления Облачность Т
(С)
Тd
(С)
f
(%)
Тe
(С)
Тes
(С)
Комфортность P
(гПа)
Po
(гПа)
Тmin
(С)
Tmax
(С)
R
(мм)
R24
(мм)
S
(см)
18 17.03 штиль 0 10 км 9/0
[Ci sp]
+35.5 +7.6 18 +34 +34 очень
жарко
1005.6 965.7
21 17.03 штиль 0 10 км 9/0
[Ci sp]
+30.0 +9.0 27 +29 +29 жарко 1007.1 967.3
03 18.03 штиль 0 10 км 9/0
[Ci sp]
+26.0 +4.5 25 +25 +25 комфорт 1007.0 967.2
06 18.03 штиль 0 10 км 9/0
[Ci sp]
+23.0 +5.6 32 +23 +26 комфорт 1009.5 969.1 +23.0
09 18.03 В 7 10 км 9/0
[Ci sp]
+35.0 -3.9 8 +31 +35 жарко 1010.6 970.5
12 18.03 В 4 10 км 9/0
[Ci sp]
+39.5 -5.1 6 +35 +46 очень
жарко
1007.8 968.1
15 18.03 СВ 5 10 км 9/0
[Ci sp]
+40.5 +1.2 9 +37 +39 очень
жарко
1004.4 964.7
18 18.03 штиль 0 10 км 9/0
[Ci sp]
+33.5 +6.7 19 +32 +32 жарко 1006.4 966.0
21 18.03 штиль 0 10 км 9/0
[Ci sp]
+28.7 +7.6 26 +28 +28 жарко 1007.5 967.6
00 19.03 штиль 0 10 км 9/0
[Ci sp]
+28.6 +5.3 23 +27 +27 жарко 1006.6 967.0
03 19.03 штиль 0 10 км 9/0
[Ci sp]
+23.5 +5.0 30 +23 +23 комфорт 1005.7 965.9
06 19.03 штиль 0 6000 м 9/0
[Ci sp]
+21.1 +8.5 44 +22 +25 комфорт 1008.4 967.8 +19.6
09 19.03 В 4 10 км 9/0
[Ci sp]
+35.5 -3.3 8 +31 +41 жарко 1009.0 969.0
12 19.03 В 5 10 км 9/0
[Ci sp]
+40.0 -1.9 7 +36 +44 очень
жарко
1005.2 965.6
15 19.03 В 4 10 км 9/0
[Ci sp]
+41.2 -5.6 5 +37 +39 очень
жарко
1002.5 962.7
18 19.03 штиль 0 10 км 9/0
[Ci sp]
+35.1 +6.5 17 +33 +33 жарко 1003.9 963.6
21 19.03 штиль 0 10 км 9/0
[Ci sp]
+27.4 +6.2 26 +27 +27 жарко 1005.1 965.2
00 20.03 штиль 0 10 км 9/0
[Ci sp]
+24.1 +9.4 39 +25 +25 комфорт 1004.4 964.6
03 20.03 штиль 0 10 км 9/0
[Ci sp]
+22.5 +7.6 38 +23 +23 комфорт 1004.6 964.7
06 20.03 штиль 0 10 км 9/0
[Ci sp]
+22.8 +8.5 40 +24 +26 комфорт 1006.4 966.1 +20.0
09 20.03 В 5 10 км 9/0
[Ci sp]
+37.8 -2.5 8 +34 +41 очень
жарко
1007.3 967.3
12 20.03 В 4 10 км 9/0
[Ci sp]
+42.0 -4.4 5 +38 +48 очень
жарко
1005.6 965.8
15 20.03 С 3 10 км 9/0
[Ci sp]
+42.0 +1.2 8 +38 +41 очень
жарко
1001.8 962.1
18 20.03 штиль 0 10 км 9/0
[Ci sp]
+34.7 +9.3 21 +33 +33 жарко 1003.2 963.1
21 20.03 штиль 0 10 км 9/0
[Ci sp]
+28.8 +8.9 29 +29 +29 жарко 1004.5 964.8
00 21.03 штиль 0 10 км 9/0
[Ci sp]
+25.0 +10.5 40 +26 +26 жарко 1003.1 963.6
06 21.03 Ю 2 10 км 9/0
[Ci sp]
+26.6 +9.7 35 +27 +29 жарко 1005.2 965.2 +22.0
09 21.03 ЮЗ 7 10 км 9/0
[Ci sp]
+35.4 +16.8 33 +38 +42 очень
душно
1007.4 967.6
12 21.03 Ю 3 10 км 9/0
[Ci sp]
+40.5 +10.9 17 +39 +52 опасность
солнечного
удара
1003.4 963.8
15 21.03 штиль 0 10 км 9/1 1200 м
[Cu hum Ci sp]
+41.5 +9.2 15 +40 +44 очень
жарко
1001.3 961.7
18 21.03 штиль 0 10 км 9/0
[Ci sp]
+37.0 +14.0 25 +37 +37 очень
жарко
1000.6 961.0
21 21.03 штиль 0 10 км 9/0
[Ac trans Ci sp]
+30.0 +13.3 36 +31 +31 жарко 1003.5 963.9
00 22.03 штиль 0 10 км 9/0
[Ac trans Ci sp]
+30.0 +12.7 35 +31 +31 жарко 1002.8 963.5
03 22.03 штиль 0 10 км 9/0
[Ac trans Ci sp]
+26.5 +13.9 46 +29 +29 жарко 1002.9 963.5
06 22.03 ЮЗ 3 10 км 9/0
[Ac trans Ci sp]
+28.8 +14.2 41 +31 +32 жарко 1005.1 965.5 +26.3
09 22.03 Ю 4 10 км 9/0
[Ac trans Ci sp]
+37.0 +18.4 34 +41 +49 опасность
перегрева
1006.1 966.6
12 22.03 Ю 2 10 км 9/0
[Ci sp]
+41.5 +13.3 19 +41 +57 опасность
перегрева
1003.1 963.9
15 22.03 В 3 10 км 9/3 1200 м
[Cu med, cong Ci sp]
+42.8 +11.8 16 +42 +44 опасность
перегрева
1000.1 960.8
18 22.03 штиль 0 10 км 9/0
[Ci sp]
+37.0 +14.7 27 +38 +38 душно 1001.0 961.5
21 22.03 СВ 3 10 км 9/0
[Ac trans Ci sp]
+34.5 +14.9 31 +36 +36 душно 1002.1 963.0
00 23.03 штиль 0 10 км 9/0
[Ac trans Ci sp]
+30.5 +13.8 36 +32 +32 жарко 1002.9 963.7
03 23.03 штиль 0 10 км 9/0
[Ci sp]
+29.0 +16.5 47 +32 +32 душно 1003.6 964.4
06 23.03 ЮЗ 2 10 км 9/0
[Ci sp]
+29.0 +16.5 47 +32 +34 душно 1005.3 965.7 +24.5
09 23.03 ЮЗ 5 10 км 9/0
[Ci sp]
+26.5 +18.9 63 +32 +39 очень
душно
1006.0 966.8
12 23.03 З 2 10 км 9/3 1200 м
[Cu hum Ci sp]
+41.3 +16.0 23 +43 +54 опасность
перегрева
1003.1 964.0
15 23.03 В 2 10 км 9/4 1200 м
[Cu hum Ci sp]
+41.8 +12.3 18 +41 +44 опасность
перегрева
1000.3 961.1
18 23.03 штиль 0 10 км 9/0
[Ac cuf Ci sp]
+37.0 +16.4 30 +39 +39 очень
душно
1001.4 962.0
21 23.03 штиль 0 10 км 9/0
[Ci sp]
+32.1 +16.5 39 +35 +35 очень
душно
1003.0 963.7
00 24.03 штиль 0 10 км 9/0
[Ac trans Ci sp]
+30.5 +14.5 38 +33 +33 душно 1004.3 965.0
03 24.03 ЮЗ 4 10 км 9/0
[Ac trans Ci sp]
+30.5 +17.5 46 +35 +35 очень
душно
1001.8 962.8
06 24.03 ЮЗ 2 10 км 9/0
[Ac trans Ci sp]
+30.0 +19.6 54 +36 +38 очень
душно
1003.9 964.5 +28.5
09 24.03 ЮЗ 4 10 км 9/0
[Ac trans Ci sp]
+35.9 +16.9 33 +39 +46 очень
душно
1006.3 966.8
12 24.03 Ю 3 10 км 9/0
[Ci sp]
+15.3 +15 +28 опасность
простуды
1003.5 964.3
15 24.03 Ю 2 10 км 9/1 1200 м
[Cb cap Ac trans Ci sp]
+41.0 +14.6 21 +42 +44 опасность
перегрева
1001.4 962.3

 

Местоположение метеостанции Сарх (Чад): широта 9.15 долгота 18.38 высота над уровнем моря 365 м.

В архиве по умолчанию представлена погода в Сархе за последнюю неделю. Архивные данные за месяц целиком и за предыдущие месяцы, начиная с января 2011 года, Вы можете получить, выбрав интересующий диапазон дат из раскрывающегося списка и нажав кнопку "Ввод!".


*Определитесь, кто Вы:
робот инопланетянин человек

Внимание! Время в таблицах - всемирное. Для получения местного времени необходимо прибавить поправку, которая равна 1 ч.

Смотрите также архив погоды в соседних городах и на ближайших метеорологических станциях:

Погода в Буссо (Чад) (234 км)
Погода в Мунду (Чад) (262 км)
Погода в Ам-Тиман (Чад) (295 км)
Погода в Босангоа (ЦАР) (315 км)
Погода в Монго (Чад) (339 км)
Погода в Пала (Чад) (380 км)
Погода в Бокоро (Чад) (388 км)
Погода в Бамбари (ЦАР) (444 км)
Погода в Ати (Чад) (453 км)
Погода в Буаре (ЦАР) (466 км)

Пояснения к столбцам:

Ветер - указаны скорость ветра в м/с - средняя за 10 мин, порывы в срок и между сроками (в фигурных скобках) и направление, откуда дует ветер: С - северный, СВ - северо-восточный, В - восточный, ЮВ - юго-восточный, Ю - южный, ЮЗ - юго-западный, З - западный, СЗ - северо-западный.
Видимость - горизонтальная дальность видимости в метрах или километрах. При видимости от 1 до 10 км при отсутствии осадков обычно наблюдается дымка, при ухудшении видимости до 1 км и менее - туман. В сухую погоду видимость может ухудшаться дымом, пылью или мглою.
Явления - указаны атмосферные явления, наблюдавшиеся в срок или в последний час перед сроком; фигурными скобками обозначены явления, наблюдавшиеся между сроками (за 1-3 часа до срока); квадратными скобками обозначены град или гололедные отложения с указанием их диаметра в мм.
Облачность - указаны через наклонную черту общая и нижняя облачность в баллах и высота нижней границы облаков в метрах; квадратными скобками обозначены формы облаков: Ci - перистые, Cs - перисто-слоистые, Cc - перисто-кучевые, Ac - высококучевые, As - высокослоистые, Sc - слоисто-кучевые, Ns - слоисто-дождевые, Cu - кучевые, Cb - кучево-дождевые. Подробнее классификацию облаков см. в Атласе облаков (PDF).
T - Температура воздуха - температура, измеренная на высоте 2 м над землей.
Td - Температура точки росы - температура, при понижении до которой содержащийся в воздухе водяной пар достигнет насыщения.
f - Относительная влажность воздуха - влажноcть воздуха, измеренная на высоте 2 м над землей.
Te - Эффективная температура - температура, которую ощущает одетый по сезону человек в тени. Характеристика душности погоды. При расчете учитывается влияние влажности воздуха и скорости ветра на теплоощущения человека.
Tes - Эффективная температура на солнце - температура, которую ощущает человек, с поправкой на солнечный нагрев. Характеристика знойности погоды. Зависит от высоты солнца над горизонтом, облачности и скорости ветра. Ночью, в пасмурную погоду, а также при ветре 12 м/с и более поправка равна нулю.
P - Атмосферное давление - приведенное к уровню моря атмосферное давление.
Po - Атмосферное давление - измеренное на уровне метеостанции атмосферное давление.
Tmin - Минимальная температура - минимум температуры воздуха на высоте 2 м над землей.
Tmax - Максимальная температура - максимум температуры воздуха на высоте 2 м над землей.
R - Количество осадков - Количество выпавших осадков за период времени, мм. При наведении курсора мыши на число - период времени, за который выпало указанное количество осадков.
R24 - Количество осадков - Количество выпавших осадков за 24 часа, мм.
S - Снежный покров - Высота снежного покрова, см. При наведении курсора мыши на число - состояние снежного покрова и степень покрытия местности в баллах.